Weather History for KCHO - August, 2013

Change the Weather History Date:

Sunday, August 18, 2013

  Actual Average Record
Temperature  
Mean Temperature 64 °F 74 °F  
Max Temperature 68 °F 85 °F 103 °F (1988)
Min Temperature 60 °F 63 °F 52 °F (1981)
Degree Days  
Heating Degree Days 1 0  
Month to date heating degree days 5 0  
Since 1 June heating degree days 7 12  
Since 1 July heating degree days 5 1  
Cooling Degree Days 0 9  
Month to date cooling degree days 133 174  
Year to date cooling degree days 900 804  
Since 1 June cooling degree days 753 718  
Growing Degree Days 14 (Base 50)    
Moisture  
Dew Point 61 °F    
Average Humidity 91    
Maximum Humidity 100    
Minimum Humidity 81    
Precipitation  
Precipitation 1.48 in 0.11 in 1.48 in (2013)
Month to date precipitation 4.00 2.37  
Year to date precipitation 31.40 26.89  
Sea Level Pressure  
Sea Level Pressure 30.22 in    
Wind  
Wind Speed 4 mph (NNE)    
Max Wind Speed 13 mph    
Max Gust Speed 17 mph    
Visibility 5 miles    
Events Rain    
T = Trace of Precipitation, MM = Missing Value Source: NWS Daily Summary

Daily Weather History Graph

Daily Weather History Graph

Search for Another Location

Airport or City:

Trip Planner

Search our weather history database for the weather conditions in past years. The results will help you decide how hot, cold, wet, or windy it might be!

Date:

Astronomy

Aug. 18, 2013 Rise Set
Actual Time 6:31 AM EDT 8:02 PM EDT
Civil Twilight 6:03 AM EDT 8:30 PM EDT
Nautical Twilight 5:30 AM EDT 9:04 PM EDT
Astronomical Twilight 4:54 AM EDT 9:39 PM EDT
Moon 6:06 PM EDT (8/18) 3:40 AM EDT (8/18)
Length of Visible Light 14h 27m
Length of Day
13h 31m
Waxing Gibbous, 92% of the Moon is Illuminated
Aug 18
Waxing Gibbous
Aug 20
Full
Aug 28
Last Quarter
Sep 5
New
Sep 12
First Quarter

Hourly Weather History & Observations

Time (EDT) Temp. Dew Point Humidity Pressure Visibility Wind Dir Wind Speed Gust Speed Precip Events Conditions
12:21 AM 64.4 °F 60.8 °F 88% 30.23 in 10.0 mi North 6.9 mph - 0.00 in Rain Light Rain
12:53 AM 64.0 °F 62.1 °F 93% 30.22 in 8.0 mi North 4.6 mph - 0.01 in Rain Light Rain
1:09 AM 64.4 °F 62.6 °F 94% 30.23 in 10.0 mi North 4.6 mph - 0.00 in Rain Light Rain
1:49 AM 64.4 °F 62.6 °F 94% 30.22 in 5.0 mi North 3.5 mph - 0.05 in Rain Rain
1:53 AM 64.0 °F 62.1 °F 93% 30.21 in 5.0 mi Calm Calm - 0.05 in Rain Rain
2:36 AM 62.6 °F 62.6 °F 100% 30.22 in 2.5 mi Calm Calm - 0.14 in Rain Heavy Rain
2:43 AM 62.6 °F 62.6 °F 100% 30.22 in 3.0 mi Calm Calm - 0.16 in Rain Rain
2:53 AM 63.0 °F 62.1 °F 97% 30.21 in 2.5 mi North 3.5 mph - 0.22 in Rain Heavy Rain
2:59 AM 62.6 °F 62.6 °F 100% 30.22 in 1.8 mi NNE 4.6 mph - 0.04 in Rain Heavy Rain
3:02 AM 62.6 °F 62.6 °F 100% 30.22 in 2.0 mi NNE 3.5 mph - 0.06 in Rain Heavy Rain
3:13 AM 62.6 °F 62.6 °F 100% 30.22 in 2.5 mi Calm Calm - 0.11 in Rain Heavy Rain
3:22 AM 62.6 °F 62.6 °F 100% 30.21 in 2.0 mi North 4.6 mph - 0.16 in Rain Heavy Rain
3:28 AM 62.6 °F 62.6 °F 100% 30.21 in 2.5 mi NNE 4.6 mph - 0.19 in Rain Heavy Rain
3:35 AM 62.6 °F 62.6 °F 100% 30.21 in 2.0 mi North 5.8 mph - 0.23 in Rain Heavy Rain
3:44 AM 62.6 °F 62.6 °F 100% 30.21 in 2.5 mi NNE 6.9 mph - 0.27 in Rain Heavy Rain
3:53 AM 63.0 °F 61.0 °F 93% 30.19 in 2.5 mi NE 12.7 mph 16.1 mph 0.32 in Rain Heavy Rain
3:57 AM 62.6 °F 60.8 °F 94% 30.21 in 3.0 mi NE 10.4 mph - 0.02 in Rain Heavy Rain
4:32 AM 62.6 °F 60.8 °F 94% 30.21 in 2.0 mi NNE 8.1 mph - 0.14 in Rain Heavy Rain
4:50 AM 62.6 °F 60.8 °F 94% 30.20 in 4.0 mi NNE 8.1 mph - 0.19 in Rain Light Rain
4:53 AM 62.1 °F 60.1 °F 93% 30.19 in 4.0 mi NNE 6.9 mph - 0.20 in Rain Rain
5:53 AM 61.0 °F 60.1 °F 97% 30.19 in 3.0 mi NNE 6.9 mph - 0.05 in Rain Rain
6:10 AM 60.8 °F 59.0 °F 94% 30.21 in 4.0 mi NNE 9.2 mph - 0.03 in Rain Light Rain
6:35 AM 60.8 °F 59.0 °F 94% 30.21 in 2.0 mi NNE 8.1 mph - 0.06 in Rain Light Rain
6:53 AM 61.0 °F 59.0 °F 93% 30.21 in 2.0 mi NNE 4.6 mph - 0.08 in Rain Rain
7:07 AM 60.8 °F 59.0 °F 94% 30.22 in 2.0 mi NE 6.9 mph - 0.03 in Rain Light Rain
7:53 AM 61.0 °F 60.1 °F 97% 30.22 in 2.0 mi NE 5.8 mph - 0.18 in Rain Rain
8:53 AM 61.0 °F 59.0 °F 93% 30.23 in 2.0 mi NNE 9.2 mph 16.1 mph 0.13 in Rain Rain
9:05 AM 60.8 °F 59.0 °F 94% 30.24 in 2.5 mi NNE 9.2 mph - 0.03 in Rain Rain
9:20 AM 60.8 °F 59.0 °F 94% 30.25 in 3.0 mi NNE 4.6 mph - 0.06 in Rain Rain
9:27 AM 60.8 °F 59.0 °F 94% 30.25 in 2.5 mi NNE 8.1 mph - 0.08 in Rain Rain
9:53 AM 61.0 °F 60.1 °F 97% 30.23 in 3.0 mi NNE 5.8 mph - 0.15 in Rain Light Rain
10:53 AM 62.1 °F 59.0 °F 90% 30.25 in 5.0 mi North 5.8 mph - 0.03 in Rain Light Rain
11:23 AM 62.6 °F 60.8 °F 94% 30.26 in 2.5 mi NNE 4.6 mph - 0.02 in Rain Light Rain
11:41 AM 62.6 °F 60.8 °F 94% 30.26 in 1.5 mi NNE 6.9 mph - 0.05 in Rain Rain
11:53 AM 63.0 °F 61.0 °F 93% 30.25 in 2.5 mi NNE 3.5 mph - 0.05 in Rain Light Rain
12:19 PM 62.6 °F 60.8 °F 94% 30.25 in 2.0 mi North 3.5 mph - 0.02 in Rain Light Rain
12:53 PM 64.0 °F 61.0 °F 90% 30.23 in 2.0 mi NNE 6.9 mph - 0.02 in   Overcast
1:00 PM 64.4 °F 62.6 °F 94% 30.24 in 5.0 mi NNE 4.6 mph - N/A   Overcast
1:08 PM 64.4 °F 62.6 °F 94% 30.24 in 5.0 mi North 4.6 mph - N/A   Overcast
1:44 PM 66.2 °F 62.6 °F 88% 30.23 in 8.0 mi NNE 5.8 mph - N/A   Overcast
1:53 PM 66.9 °F 62.1 °F 84% 30.22 in 8.0 mi Variable 3.5 mph - N/A   Overcast
2:09 PM 66.2 °F 62.6 °F 88% 30.23 in 10.0 mi NE 4.6 mph - N/A   Overcast
2:53 PM 66.9 °F 62.1 °F 84% 30.21 in 10.0 mi Variable 3.5 mph - N/A   Overcast
3:53 PM 66.9 °F 61.0 °F 81% 30.20 in 10.0 mi North 3.5 mph - N/A   Overcast
4:13 PM 66.2 °F 62.6 °F 88% 30.21 in 10.0 mi North 3.5 mph - N/A   Overcast
4:53 PM 68.0 °F 62.1 °F 81% 30.19 in 10.0 mi NE 4.6 mph - N/A   Overcast
5:45 PM 66.2 °F 62.6 °F 88% 30.20 in 10.0 mi East 6.9 mph - N/A   Overcast
5:53 PM 66.0 °F 62.1 °F 87% 30.19 in 10.0 mi ENE 5.8 mph - N/A   Overcast
6:07 PM 66.2 °F 62.6 °F 88% 30.20 in 10.0 mi ENE 3.5 mph - N/A   Overcast
6:53 PM 66.9 °F 62.1 °F 84% 30.20 in 10.0 mi NE 3.5 mph - N/A   Overcast
7:53 PM 66.0 °F 62.1 °F 87% 30.20 in 10.0 mi Calm Calm - N/A   Overcast
8:53 PM 64.9 °F 62.1 °F 90% 30.19 in 10.0 mi ENE 3.5 mph - N/A   Overcast
9:01 PM 64.4 °F 62.6 °F 94% 30.21 in 10.0 mi ENE 3.5 mph - N/A   Mostly Cloudy
9:33 PM 64.4 °F 62.6 °F 94% 30.23 in 10.0 mi South 4.6 mph - N/A   Mostly Cloudy
9:53 PM 64.0 °F 62.1 °F 93% 30.23 in 10.0 mi Calm Calm - N/A   Overcast
10:53 PM 64.0 °F 63.0 °F 96% 30.22 in 6.0 mi SSW 3.5 mph - N/A   Overcast
11:53 PM 64.0 °F 63.0 °F 96% 30.21 in 5.0 mi Calm Calm - N/A   Overcast